[[{"header":{"parameterUnit":"m.s-1","parameterCategory":1,"la1":30.2991,"la2":30.254,"lo1":-89.0895,"lo2":-89.0444,"dy":0.0017,"dx":0.0017,"nx":28,"ny":28,"refTime":"2025-08-21T09:00:00:Z","depth":0,"parameterNumber":2,"parameterNumberName":"U-component_of_WINDS"},"data":[0,0,0,0,0,0,0,0,0,0,0,0,0,0,0,0,0,0,0,0,0,0,0,0,0,0,0,0,0,0,0,0,0,0,0,0,0,0,0,0,0,0,0,0,0,0,0,0,0,0,0,0,0,0,0,0,0,0,1.2474,1.2475,0,1.2531,1.2532,1.2533,1.2516,1.2515,1.2514,1.2513,1.2571,1.2574,1.2576,0,0,0,0,0,0,0,0,0,0,0,0,0,1.2351,1.2354,1.2474,1.2475,1.2476,1.2531,1.2532,1.2533,1.2516,1.2515,1.2513,1.2512,1.257,1.2573,1.2577,0,0,0,0,0,0,0,0,0,0,0,0,0,1.2406,1.2355,1.2474,1.2474,1.2475,1.2531,1.2532,1.2533,1.2516,1.2515,1.2513,1.2511,1.2569,1.2573,1.2577,1.2637,0,0,1.2589,1.2591,0,0,0,0,0,0,0,0,1.2403,1.2411,1.2473,1.2474,1.2475,1.2515,1.251,1.2568,1.2517,1.2501,1.2512,1.251,1.2554,1.2559,1.2574,1.264,1.2642,1.259,1.2592,1.2594,1.2595,0,0,0,0,0,0,0,1.2399,1.2408,1.2497,1.2474,1.2475,1.2471,1.2477,1.2521,1.2536,1.2502,1.2501,1.2508,1.2554,1.257,1.2575,1.2643,1.259,1.2593,1.2596,1.2597,1.2764,1.2766,0,0,0,0,0,0,1.2395,1.2405,1.2495,1.2498,1.2434,1.2475,1.2482,1.2504,1.2536,1.2539,1.2509,1.2507,1.2564,1.257,1.2577,1.2651,1.2594,1.2598,1.26,1.2762,1.2764,1.2766,0,0,0,0,0,0,1.2392,1.2403,1.2493,1.2452,1.2463,1.2479,1.2504,1.2506,1.2522,1.2541,1.2544,1.2523,1.2563,1.2571,1.2623,1.2652,1.2599,1.2603,1.2759,1.2762,1.2765,1.2798,0,0,0,0,0,0,1.2389,1.2402,1.2425,1.2452,1.2465,1.2537,1.2506,1.2508,1.2529,1.2526,1.2555,1.2558,1.2562,1.2617,1.2627,1.2657,1.2606,1.2757,1.2761,1.2764,1.2794,1.2802,1.2808,0,0,0,0,0,1.2385,1.2432,1.2426,1.2437,1.2494,1.2539,1.2546,1.255,1.2531,1.2554,1.2567,1.2557,1.2647,1.2622,1.2633,1.2665,1.2755,1.276,1.2764,1.2791,1.28,1.2808,0,0,0,0,0,0,1.2407,1.2435,1.2429,1.2486,1.2511,1.2536,1.2565,1.2559,1.2589,1.2585,1.2589,1.2596,1.2649,1.2662,1.2633,1.2726,1.2698,1.2705,1.2715,1.2724,1.2731,1.2727,1.2609,0,0,0,0,0,1.2419,1.2453,1.2476,1.2524,1.2536,1.2549,1.2569,1.257,1.2595,1.2605,1.2621,1.2646,1.2681,1.2703,1.2735,1.2796,1.2803,1.2824,1.283,1.2836,1.2842,1.2877,1.2887,1.2781,1.2781,1.2781,0,0,1.2443,1.2462,1.2484,1.2529,1.2547,1.2584,1.2557,1.2596,1.2623,1.2611,1.2661,1.2674,1.2702,1.2759,1.2785,1.2771,1.2873,1.2842,1.2846,1.2849,1.2883,1.2893,1.2901,1.2785,1.2784,1.2783,0,0,1.2506,1.2523,1.2566,1.2586,1.2615,1.2623,1.2633,1.266,1.2669,1.2719,1.2711,1.2743,1.2802,1.2822,1.2841,1.2913,1.2905,1.2924,1.296,1.2994,1.3002,1.3009,1.3036,1.3046,1.293,1.293,1.293,0,1.2532,1.2586,1.2589,1.2629,1.265,1.264,1.2684,1.2703,1.2741,1.2756,1.2741,1.2815,1.2833,1.2895,1.2913,1.2928,1.2941,1.292,1.3,1.3008,1.3015,1.3041,1.3051,1.2932,1.2931,1.2931,1.2931,0,1.2618,1.2655,1.2686,1.2724,1.2748,1.279,1.28,1.2824,1.2823,1.2833,1.2886,1.2907,1.2945,1.2959,1.2959,1.3022,1.3013,1.2999,1.2972,1.3027,1.3052,1.3061,1.2935,1.2934,1.2933,1.2933,0,0,1.2696,1.2735,1.2747,1.2765,1.2797,1.2826,1.2868,1.2905,1.2926,1.2953,1.2989,1.3039,1.3027,1.3047,1.3049,1.3079,1.3137,1.3061,1.3062,1.3075,1.321,1.3221,1.3232,1.3131,1.3133,1.3135,1.3208,0,1.2762,1.2836,1.2841,1.2908,1.2943,1.2935,1.2972,1.2996,1.3007,1.3039,1.3051,1.3087,1.3068,1.308,1.3109,1.3123,1.3164,1.3118,1.3166,1.3167,1.316,1.3245,1.3256,1.3324,1.3217,1.3219,1.322,0,1.2849,1.288,1.2951,1.2979,1.2994,1.3027,1.3062,1.3092,1.312,1.3126,1.315,1.3148,1.3192,1.3162,1.3224,1.3193,1.3212,1.3222,1.3225,1.323,1.3198,1.3253,1.3346,1.3356,1.3235,1.3234,1.3233,0,1.2901,1.2959,1.301,1.3025,1.3059,1.3082,1.3098,1.3123,1.3146,1.3176,1.3191,1.3226,1.3246,1.3274,1.3281,1.3259,1.3343,1.3314,1.335,1.335,1.3369,1.3368,1.3467,1.338,1.338,1.338,1.3379,0,1.2975,1.3019,1.3033,1.3065,1.3114,1.3119,1.3168,1.3182,1.3205,1.3239,1.3234,1.3266,1.3274,1.3309,1.3315,1.3366,1.3374,1.3381,1.3382,1.3382,1.3381,1.3395,1.3391,1.3382,1.3382,1.3381,1.3381,0,1.3041,1.3052,1.3107,1.3135,1.3143,1.3179,1.3203,1.3233,1.3244,1.3287,1.3297,1.3314,1.3354,1.3365,1.3412,1.3417,1.3477,1.3473,1.3468,1.3468,1.3504,1.3501,1.3616,1.3632,1.3534,1.3535,1.3536,0,1.3088,1.3122,1.3154,1.3177,1.3193,1.323,1.3253,1.3259,1.3284,1.3319,1.3345,1.3384,1.3416,1.3481,1.3497,1.3534,1.3532,1.357,1.3538,1.3537,1.3534,1.3533,1.3537,1.3576,1.3577,1.3578,1.3579,0,1.3171,1.3176,1.3209,1.3245,1.3273,1.3301,1.3329,1.3348,1.3358,1.3386,1.3427,1.3452,1.3501,1.3541,1.3578,1.3594,1.3589,1.3589,1.36,1.36,1.3596,1.36,1.3486,1.3586,1.3586,1.3585,1.3585,1.3584,1.323,1.3261,1.3288,1.3326,1.3348,1.3374,1.3404,1.3419,1.3453,1.3494,1.3496,1.354,1.3568,1.3618,1.3637,1.3672,1.3661,1.3676,1.368,1.3684,1.3687,1.359,1.3679,1.3679,1.3679,1.3678,1.3678,0,1.3314,1.3332,1.3366,1.3405,1.3436,1.3428,1.3458,1.3484,1.3524,1.355,1.3582,1.363,1.3668,1.3689,1.3727,1.3752,1.3751,1.3762,1.3761,1.3765,1.3695,1.3682,1.3763,1.3763,1.3763,1.3763,1.3763,1.3763,1.3361,1.3413,1.342,1.3483,1.35,1.3544,1.3562,1.3587,1.3608,1.3662,1.3694,1.3707,1.3731,1.3772,1.3808,1.3813,1.3828,1.3841,1.3845,1.3778,1.377,1.3762,1.375,1.3844,1.3844,1.3912,1.3913,1.3913]},{"header":{"parameterUnit":"m.s-1","parameterCategory":1,"la1":30.2991,"la2":30.254,"lo1":-89.0895,"lo2":-89.0444,"dy":0.0017,"dx":0.0017,"nx":28,"ny":28,"refTime":"2025-08-21T09:00:00:Z","depth":0,"parameterNumber":3,"parameterNumberName":"V-component_of_WINDS"},"data":[0,0,0,0,0,0,0,0,0,0,0,0,0,0,0,0,0,0,0,0,0,0,0,0,0,0,0,0,0,0,0,0,0,0,0,0,0,0,0,0,0,0,0,0,0,0,0,0,0,0,0,0,0,0,0,0,0,0,-0.7188,-0.7188,0,-0.7207,-0.7207,-0.7207,-0.7245,-0.7245,-0.7246,-0.7247,-0.7264,-0.7263,-0.7263,0,0,0,0,0,0,0,0,0,0,0,0,0,-0.7183,-0.7183,-0.7188,-0.7188,-0.7189,-0.7207,-0.7207,-0.7207,-0.7245,-0.7246,-0.7246,-0.7247,-0.7264,-0.7263,-0.7263,0,0,0,0,0,0,0,0,0,0,0,0,0,-0.7192,-0.7183,-0.7188,-0.721,-0.7212,-0.7207,-0.7207,-0.7207,-0.7244,-0.7246,-0.7247,-0.7248,-0.7264,-0.7264,-0.7263,-0.7238,0,0,-0.7262,-0.7262,0,0,0,0,0,0,0,0,-0.7191,-0.7192,-0.7206,-0.7208,-0.721,-0.7225,-0.7211,-0.7217,-0.7244,-0.7232,-0.7247,-0.7248,-0.725,-0.725,-0.7251,-0.7239,-0.724,-0.7262,-0.7262,-0.7262,-0.7261,0,0,0,0,0,0,0,-0.7191,-0.7191,-0.7196,-0.7206,-0.7209,-0.7218,-0.722,-0.7213,-0.7234,-0.7233,-0.7236,-0.7238,-0.7251,-0.7252,-0.7252,-0.724,-0.7262,-0.7262,-0.7261,-0.7261,-0.7206,-0.7205,0,0,0,0,0,0,-0.7187,-0.7191,-0.7195,-0.7196,-0.7204,-0.7217,-0.722,-0.7219,-0.7234,-0.7238,-0.7237,-0.7239,-0.7252,-0.7252,-0.7253,-0.7223,-0.7262,-0.7261,-0.7261,-0.7207,-0.7206,-0.7204,0,0,0,0,0,0,-0.7187,-0.7187,-0.7194,-0.7194,-0.7196,-0.7216,-0.7215,-0.7219,-0.7219,-0.7237,-0.7241,-0.7233,-0.7253,-0.7253,-0.7241,-0.7224,-0.7261,-0.7261,-0.7209,-0.7207,-0.7205,-0.7164,0,0,0,0,0,0,-0.7187,-0.7187,-0.7178,-0.7194,-0.7196,-0.7183,-0.7214,-0.7218,-0.7219,-0.7223,-0.7235,-0.7238,-0.7254,-0.7242,-0.7241,-0.7224,-0.726,-0.721,-0.7208,-0.7206,-0.7167,-0.7161,-0.7156,0,0,0,0,0,-0.7186,-0.7166,-0.7177,-0.7178,-0.7185,-0.7182,-0.7183,-0.7201,-0.7217,-0.7208,-0.7219,-0.7238,-0.7227,-0.724,-0.724,-0.7223,-0.7211,-0.7209,-0.7206,-0.7169,-0.7162,-0.7156,0,0,0,0,0,0,-0.7147,-0.7168,-0.7181,-0.7165,-0.7171,-0.7188,-0.7177,-0.7193,-0.7195,-0.7198,-0.7221,-0.7223,-0.7208,-0.7214,-0.7229,-0.7198,-0.7222,-0.7219,-0.7194,-0.7188,-0.7182,-0.718,-0.726,0,0,0,0,0,-0.7136,-0.7133,-0.7151,-0.7135,-0.7138,-0.7157,-0.7156,-0.717,-0.7177,-0.718,-0.719,-0.7196,-0.7193,-0.7191,-0.719,-0.7169,-0.7171,-0.7157,-0.7151,-0.7147,-0.7143,-0.7131,-0.7124,-0.7195,-0.7195,-0.7195,0,0,-0.7114,-0.7126,-0.7122,-0.7128,-0.7134,-0.7129,-0.7159,-0.7152,-0.7148,-0.7179,-0.7167,-0.7175,-0.7183,-0.7166,-0.7159,-0.7171,-0.7124,-0.7143,-0.7139,-0.7138,-0.7127,-0.712,-0.7114,-0.7194,-0.7194,-0.7194,0,0,-0.7071,-0.708,-0.7067,-0.7073,-0.7083,-0.7095,-0.7092,-0.7107,-0.7113,-0.7102,-0.7125,-0.712,-0.7116,-0.712,-0.7122,-0.708,-0.7096,-0.7079,-0.7049,-0.7037,-0.7031,-0.7026,-0.7009,-0.7003,-0.7076,-0.7076,-0.7076,0,-0.7042,-0.7036,-0.7058,-0.705,-0.7051,-0.7079,-0.7065,-0.707,-0.7078,-0.7078,-0.7092,-0.7087,-0.7094,-0.7077,-0.7067,-0.7068,-0.7064,-0.7077,-0.7031,-0.7026,-0.7021,-0.7006,-0.6999,-0.7074,-0.7074,-0.7074,-0.7074,0,-0.6999,-0.6994,-0.6982,-0.699,-0.699,-0.6979,-0.6999,-0.6996,-0.701,-0.7021,-0.7009,-0.7019,-0.702,-0.7018,-0.7031,-0.7002,-0.7009,-0.7027,-0.705,-0.7012,-0.6997,-0.6992,-0.707,-0.7071,-0.7072,-0.7072,0,0,-0.693,-0.695,-0.6945,-0.6949,-0.6962,-0.6958,-0.6948,-0.6949,-0.6946,-0.6951,-0.6942,-0.6938,-0.6953,-0.6955,-0.697,-0.6959,-0.6923,-0.6977,-0.6978,-0.6965,-0.689,-0.6875,-0.6868,-0.6935,-0.6934,-0.6933,-0.6888,0,-0.6888,-0.6872,-0.6892,-0.6871,-0.6866,-0.6893,-0.6884,-0.6891,-0.6901,-0.6897,-0.6909,-0.6904,-0.6927,-0.6928,-0.6919,-0.6929,-0.6908,-0.6933,-0.6925,-0.6924,-0.692,-0.686,-0.6845,-0.6802,-0.6883,-0.6882,-0.6881,0,-0.6837,-0.6839,-0.6818,-0.6832,-0.683,-0.6822,-0.6824,-0.6821,-0.6829,-0.6837,-0.6838,-0.6856,-0.6846,-0.687,-0.6856,-0.6873,-0.6871,-0.6875,-0.6874,-0.6872,-0.6899,-0.6855,-0.6789,-0.6782,-0.6873,-0.6874,-0.6874,0,-0.6786,-0.6784,-0.6771,-0.6774,-0.679,-0.6783,-0.6789,-0.6798,-0.6797,-0.6799,-0.6798,-0.6799,-0.6799,-0.6798,-0.6815,-0.6832,-0.6798,-0.6824,-0.6803,-0.6802,-0.6792,-0.6792,-0.6723,-0.6795,-0.6795,-0.6795,-0.6795,0,-0.6735,-0.6721,-0.6749,-0.674,-0.6724,-0.6747,-0.6731,-0.674,-0.6747,-0.674,-0.6764,-0.6757,-0.6781,-0.6776,-0.6789,-0.6774,-0.6774,-0.6779,-0.6782,-0.6776,-0.6775,-0.6773,-0.6776,-0.6793,-0.6794,-0.6794,-0.6794,0,-0.6675,-0.6693,-0.668,-0.6697,-0.67,-0.6688,-0.6701,-0.6694,-0.6706,-0.6697,-0.6696,-0.6714,-0.671,-0.6727,-0.6726,-0.6734,-0.6711,-0.6721,-0.6708,-0.671,-0.6687,-0.6688,-0.6613,-0.6603,-0.6683,-0.6682,-0.6681,0,-0.6641,-0.663,-0.6645,-0.6643,-0.6648,-0.6643,-0.6643,-0.6665,-0.6663,-0.6671,-0.6662,-0.6659,-0.6658,-0.6649,-0.6662,-0.666,-0.6668,-0.6642,-0.6668,-0.6661,-0.6665,-0.6665,-0.6663,-0.6636,-0.6635,-0.6634,-0.6633,0,-0.6577,-0.6586,-0.6585,-0.6587,-0.6585,-0.6587,-0.6591,-0.6588,-0.6611,-0.6608,-0.6604,-0.6603,-0.6601,-0.6598,-0.6599,-0.6604,-0.6622,-0.6626,-0.662,-0.6612,-0.6604,-0.6606,-0.6691,-0.6627,-0.6627,-0.6628,-0.6628,-0.6628,-0.6527,-0.6518,-0.6528,-0.6525,-0.653,-0.6533,-0.6526,-0.6538,-0.6535,-0.6536,-0.6549,-0.6542,-0.6549,-0.6552,-0.6556,-0.655,-0.6562,-0.6554,-0.6552,-0.6549,-0.6544,-0.6607,-0.655,-0.655,-0.6551,-0.6551,-0.6551,0,-0.6463,-0.647,-0.6468,-0.6472,-0.647,-0.6488,-0.6493,-0.649,-0.6483,-0.6489,-0.6487,-0.6482,-0.6479,-0.6491,-0.6489,-0.6482,-0.649,-0.648,-0.648,-0.648,-0.6535,-0.6538,-0.6474,-0.6474,-0.6474,-0.6474,-0.6474,-0.6474,-0.6429,-0.6415,-0.6425,-0.6414,-0.6421,-0.6415,-0.6416,-0.6418,-0.6422,-0.6415,-0.6413,-0.6421,-0.6429,-0.6428,-0.6426,-0.6429,-0.6427,-0.6414,-0.642,-0.647,-0.6477,-0.6484,-0.6488,-0.6414,-0.6414,-0.6366,-0.6366,-0.6365]}]]